[[{"header":{"parameterUnit":"m.s-1","parameterCategory":1,"la1":30.2991,"la2":30.254,"lo1":-89.0895,"lo2":-89.0444,"dy":0.0017,"dx":0.0017,"nx":28,"ny":28,"refTime":"2024-08-01T09:00:00:Z","depth":0,"parameterNumber":2,"parameterNumberName":"U-component_of_WINDS"},"data":[0,0,0,0,0,0,0,0,0,0,0,0,0,0,0,0,0,0,0,0,0,0,0,0,0,0,0,0,0,0,0,0,0,0,0,0,0,0,0,0,0,0,0,0,0,0,0,0,0,0,0,0,0,0,0,0,0,0,0.8358,0.8358,0,0.8393,0.8393,0.8394,0.8401,0.8401,0.84,0.84,0.8434,0.8435,0.8436,0,0,0,0,0,0,0,0,0,0,0,0,0,0.8293,0.8294,0.8358,0.8358,0.8359,0.8393,0.8393,0.8394,0.8401,0.8401,0.84,0.84,0.8434,0.8435,0.8437,0,0,0,0,0,0,0,0,0,0,0,0,0,0.8324,0.8294,0.8358,0.8366,0.8367,0.8393,0.8393,0.8394,0.8401,0.8401,0.84,0.84,0.8433,0.8435,0.8437,0.8456,0,0,0.8442,0.8443,0,0,0,0,0,0,0,0,0.8322,0.8326,0.8364,0.8366,0.8367,0.8392,0.8383,0.8415,0.8401,0.8388,0.84,0.84,0.842,0.8423,0.8431,0.8457,0.8459,0.8442,0.8443,0.8444,0.8444,0,0,0,0,0,0,0,0.832,0.8325,0.8372,0.8365,0.8366,0.8367,0.8371,0.8389,0.8406,0.8389,0.839,0.8394,0.8421,0.8429,0.8431,0.8459,0.8442,0.8444,0.8445,0.8445,0.8501,0.8501,0,0,0,0,0,0,0.8317,0.8323,0.837,0.8373,0.8343,0.8369,0.8373,0.8384,0.8406,0.8409,0.8394,0.8394,0.8426,0.8429,0.8433,0.8455,0.8444,0.8446,0.8447,0.85,0.8501,0.8501,0,0,0,0,0,0,0.8315,0.8321,0.8369,0.8348,0.8354,0.837,0.8383,0.8385,0.8393,0.841,0.8412,0.84,0.8426,0.843,0.8449,0.8456,0.8446,0.8448,0.85,0.85,0.8501,0.85,0,0,0,0,0,0,0.8313,0.832,0.8328,0.8348,0.8355,0.8386,0.8383,0.8386,0.8397,0.8397,0.8415,0.8418,0.8426,0.8447,0.8451,0.8458,0.8449,0.8499,0.85,0.8501,0.85,0.8501,0.8502,0,0,0,0,0,0.8311,0.8327,0.8329,0.8335,0.8366,0.8387,0.8391,0.84,0.8397,0.8405,0.8415,0.8417,0.8455,0.8449,0.8454,0.8462,0.8499,0.85,0.8501,0.8499,0.8501,0.8502,0,0,0,0,0,0,0.8307,0.833,0.8332,0.8355,0.8369,0.8388,0.8398,0.8401,0.8416,0.8415,0.8426,0.843,0.8448,0.8457,0.845,0.848,0.8476,0.8478,0.8474,0.8475,0.8476,0.8473,0.8451,0,0,0,0,0,0.8309,0.8325,0.8343,0.8361,0.8368,0.8382,0.8391,0.8397,0.8412,0.8418,0.8429,0.8443,0.8457,0.8467,0.8481,0.8501,0.8504,0.8509,0.8509,0.851,0.8512,0.8521,0.8523,0.8504,0.8504,0.8504,0,0,0.8313,0.8327,0.8336,0.8361,0.8373,0.8387,0.8387,0.8403,0.8414,0.842,0.8439,0.8447,0.8463,0.8482,0.8491,0.849,0.8517,0.8511,0.8512,0.8513,0.8522,0.8524,0.8526,0.8505,0.8505,0.8505,0,0,0.8328,0.8341,0.8357,0.8368,0.8385,0.8394,0.8398,0.8416,0.8422,0.8441,0.8445,0.8458,0.8483,0.8494,0.8502,0.8519,0.8521,0.8523,0.8528,0.8537,0.8539,0.854,0.8545,0.8547,0.8525,0.8525,0.8525,0,0.833,0.8354,0.8364,0.838,0.839,0.8396,0.8411,0.8422,0.8443,0.8449,0.8447,0.8478,0.8489,0.851,0.8514,0.8521,0.8524,0.8521,0.8538,0.8539,0.8541,0.8546,0.8547,0.8525,0.8525,0.8525,0.8525,0,0.8355,0.8372,0.8382,0.8402,0.8414,0.8429,0.844,0.845,0.8455,0.8463,0.8481,0.8494,0.8511,0.8516,0.8521,0.8538,0.8536,0.8536,0.8533,0.8542,0.8547,0.8549,0.8525,0.8525,0.8525,0.8525,0,0,0.8369,0.8394,0.8398,0.8406,0.8425,0.8438,0.8452,0.8469,0.8477,0.849,0.8502,0.8523,0.8523,0.8532,0.8538,0.8546,0.8557,0.8545,0.8545,0.8546,0.8574,0.8574,0.8576,0.8559,0.8559,0.8559,0.8573,0,0.8386,0.8413,0.8422,0.8445,0.8459,0.8464,0.8477,0.8489,0.8497,0.8509,0.8518,0.8532,0.8531,0.8537,0.8545,0.8554,0.8563,0.8553,0.8569,0.8569,0.8564,0.8579,0.8578,0.8591,0.8575,0.8575,0.8575,0,0.8409,0.8423,0.8447,0.8463,0.8469,0.8481,0.8495,0.8508,0.8521,0.8526,0.8536,0.8541,0.8555,0.8551,0.857,0.8563,0.857,0.8575,0.8576,0.8577,0.8573,0.858,0.8595,0.8596,0.8578,0.8578,0.8578,0,0.8415,0.844,0.8457,0.8465,0.8484,0.8492,0.85,0.8513,0.8522,0.8534,0.854,0.8554,0.8562,0.8572,0.858,0.8576,0.8598,0.8595,0.8601,0.8601,0.8605,0.8605,0.8621,0.8611,0.861,0.861,0.861,0,0.8432,0.8446,0.846,0.8471,0.8487,0.8496,0.8511,0.8519,0.853,0.8542,0.8547,0.8557,0.8567,0.8578,0.8584,0.8599,0.8602,0.8606,0.8607,0.8605,0.8604,0.8609,0.8608,0.8611,0.8611,0.8611,0.8611,0,0.8441,0.8452,0.8471,0.8487,0.8492,0.8502,0.8516,0.8525,0.8533,0.8547,0.8551,0.8563,0.8576,0.8585,0.8602,0.8606,0.8621,0.8623,0.8617,0.8617,0.8623,0.8622,0.8643,0.8646,0.8634,0.8634,0.8634,0,0.8451,0.8462,0.848,0.8488,0.8496,0.851,0.8518,0.8528,0.8536,0.8552,0.8559,0.8573,0.8585,0.8605,0.8615,0.8627,0.8629,0.8635,0.8631,0.8628,0.8628,0.8627,0.8628,0.8636,0.8636,0.8636,0.8636,0,0.8467,0.8471,0.8485,0.8499,0.851,0.8521,0.8533,0.8539,0.855,0.856,0.8574,0.8582,0.86,0.8613,0.8626,0.8633,0.8636,0.8637,0.8639,0.8637,0.8633,0.8634,0.8618,0.8637,0.8637,0.8637,0.8636,0.8636,0.8477,0.8486,0.85,0.8514,0.8523,0.8534,0.8543,0.8552,0.8564,0.8579,0.8584,0.8598,0.8609,0.8628,0.8635,0.8645,0.8645,0.8648,0.8648,0.8649,0.8649,0.8632,0.8648,0.8648,0.8648,0.8648,0.8648,0,0.8492,0.8501,0.8513,0.853,0.854,0.8542,0.8555,0.8563,0.8576,0.8587,0.8598,0.8613,0.8626,0.8636,0.8648,0.8655,0.8656,0.8658,0.8657,0.8658,0.8649,0.8646,0.8656,0.8656,0.8656,0.8656,0.8656,0.8656,0.8501,0.8517,0.8523,0.8543,0.8551,0.8566,0.8572,0.8582,0.859,0.8607,0.8618,0.8624,0.8634,0.8648,0.8659,0.8661,0.8665,0.8666,0.8669,0.866,0.8659,0.8658,0.8655,0.8667,0.8667,0.8677,0.8677,0.8678]},{"header":{"parameterUnit":"m.s-1","parameterCategory":1,"la1":30.2991,"la2":30.254,"lo1":-89.0895,"lo2":-89.0444,"dy":0.0017,"dx":0.0017,"nx":28,"ny":28,"refTime":"2024-08-01T09:00:00:Z","depth":0,"parameterNumber":3,"parameterNumberName":"V-component_of_WINDS"},"data":[0,0,0,0,0,0,0,0,0,0,0,0,0,0,0,0,0,0,0,0,0,0,0,0,0,0,0,0,0,0,0,0,0,0,0,0,0,0,0,0,0,0,0,0,0,0,0,0,0,0,0,0,0,0,0,0,0,0,3.2353,3.2353,0,3.2347,3.2347,3.2347,3.2313,3.2312,3.2311,3.231,3.2304,3.2305,3.2306,0,0,0,0,0,0,0,0,0,0,0,0,0,3.2331,3.2332,3.2353,3.2353,3.2353,3.2347,3.2347,3.2347,3.2313,3.2312,3.2311,3.231,3.2304,3.2305,3.2306,0,0,0,0,0,0,0,0,0,0,0,0,0,3.2335,3.2332,3.2353,3.2335,3.2333,3.2347,3.2347,3.2347,3.2313,3.2312,3.231,3.2309,3.2304,3.2305,3.2306,3.2337,0,0,3.2309,3.2309,0,0,0,0,0,0,0,0,3.2335,3.2335,3.2337,3.2336,3.2334,3.2329,3.2338,3.2344,3.2313,3.2321,3.231,3.2309,3.2314,3.2314,3.2316,3.2337,3.2337,3.2309,3.2309,3.231,3.231,0,0,0,0,0,0,0,3.2334,3.2336,3.2351,3.2337,3.2335,3.2326,3.2325,3.2339,3.2324,3.232,3.2317,3.2317,3.2312,3.2315,3.2315,3.2336,3.2309,3.231,3.231,3.2311,3.2381,3.2382,0,0,0,0,0,0,3.2337,3.2336,3.2351,3.235,3.2331,3.2328,3.2327,3.2332,3.2324,3.2322,3.2318,3.2316,3.2314,3.2314,3.2315,3.235,3.231,3.2311,3.2311,3.238,3.2382,3.2383,0,0,0,0,0,0,3.2336,3.2338,3.2351,3.2342,3.2343,3.2329,3.2336,3.2333,3.2335,3.2323,3.232,3.2323,3.2313,3.2313,3.2331,3.2349,3.2311,3.2312,3.2378,3.238,3.2382,3.242,0,0,0,0,0,0,3.2336,3.2339,3.2351,3.2343,3.2344,3.2368,3.2337,3.2334,3.2337,3.2333,3.2327,3.2324,3.2312,3.233,3.2332,3.235,3.2313,3.2377,3.2379,3.2382,3.2417,3.2423,3.2428,0,0,0,0,0,3.2335,3.2362,3.2352,3.2354,3.2359,3.2369,3.237,3.2355,3.2338,3.235,3.2342,3.2325,3.2347,3.2332,3.2334,3.2352,3.2376,3.2379,3.2381,3.2415,3.2422,3.2428,0,0,0,0,0,0,3.2372,3.2361,3.2349,3.2374,3.2373,3.2363,3.2378,3.2363,3.2367,3.2363,3.2344,3.2343,3.2363,3.236,3.2344,3.2381,3.2358,3.2362,3.2383,3.239,3.2395,3.2395,3.2313,0,0,0,0,0,3.2384,3.2393,3.2382,3.2405,3.2405,3.2392,3.2396,3.2384,3.2382,3.2382,3.2375,3.2374,3.238,3.2385,3.239,3.2417,3.2414,3.243,3.2436,3.244,3.2443,3.2455,3.2462,3.2393,3.2393,3.2393,0,0,3.2407,3.2401,3.2409,3.2413,3.2411,3.242,3.2392,3.2404,3.2411,3.2383,3.24,3.2395,3.2392,3.2414,3.2423,3.2411,3.2462,3.2444,3.2448,3.2448,3.2459,3.2466,3.2472,3.2395,3.2394,3.2394,0,0,3.2453,3.2451,3.2469,3.2467,3.2464,3.2455,3.2459,3.2452,3.2447,3.2463,3.2442,3.245,3.2462,3.246,3.2461,3.2506,3.249,3.2508,3.2537,3.2549,3.2554,3.2559,3.2574,3.258,3.2512,3.2512,3.2512,0,3.2482,3.2497,3.248,3.2493,3.2495,3.2471,3.2488,3.2487,3.2486,3.2488,3.2475,3.2488,3.2484,3.2505,3.2516,3.2518,3.2521,3.2509,3.2555,3.256,3.2564,3.2578,3.2583,3.2514,3.2514,3.2513,3.2513,0,3.2532,3.2542,3.2557,3.2556,3.2559,3.2575,3.256,3.2566,3.2553,3.2545,3.2561,3.2556,3.2559,3.2563,3.2552,3.2582,3.2574,3.2559,3.2535,3.2573,3.2585,3.2591,3.2517,3.2516,3.2516,3.2515,0,0,3.2602,3.2591,3.2597,3.2595,3.2589,3.2597,3.261,3.2613,3.2618,3.2618,3.2628,3.2638,3.2623,3.2624,3.2612,3.2623,3.2657,3.2605,3.2605,3.2614,3.2688,3.2699,3.2706,3.2646,3.2647,3.2648,3.2688,0,3.2646,3.2669,3.2654,3.2679,3.2687,3.2664,3.2675,3.2673,3.2665,3.2671,3.2662,3.2669,3.265,3.265,3.2659,3.2651,3.2671,3.2648,3.2655,3.2655,3.2655,3.2712,3.2725,3.2762,3.2693,3.2694,3.2694,0,3.27,3.2702,3.2727,3.2718,3.2721,3.2732,3.2733,3.2739,3.2735,3.2729,3.2729,3.2714,3.2726,3.2703,3.2719,3.2703,3.2705,3.2701,3.2702,3.2702,3.2676,3.2712,3.2774,3.2779,3.2702,3.2701,3.2701,0,3.2747,3.2756,3.2772,3.2771,3.2762,3.277,3.2766,3.2761,3.2763,3.2764,3.2765,3.2767,3.2768,3.277,3.2756,3.2741,3.2773,3.2749,3.2767,3.2767,3.2774,3.2774,3.2836,3.2777,3.2777,3.2777,3.2777,0,3.2797,3.2813,3.2792,3.2802,3.2819,3.2802,3.2819,3.2813,3.2809,3.2816,3.2796,3.2804,3.2785,3.279,3.2779,3.2793,3.2794,3.2788,3.2785,3.2789,3.279,3.279,3.2786,3.2779,3.2778,3.2778,3.2778,0,3.2852,3.2839,3.2855,3.2844,3.2842,3.2855,3.2845,3.2854,3.2844,3.2854,3.2856,3.2841,3.2846,3.2832,3.2835,3.2828,3.2847,3.284,3.2849,3.2846,3.2864,3.2862,3.2928,3.2935,3.2873,3.2873,3.2874,0,3.2884,3.2896,3.2887,3.289,3.2887,3.2894,3.2896,3.2878,3.2881,3.2877,3.2885,3.2889,3.2891,3.29,3.2889,3.2891,3.2883,3.2906,3.2883,3.2887,3.2882,3.2881,3.2881,3.2911,3.2911,3.2912,3.2913,0,3.2942,3.2935,3.2939,3.294,3.2942,3.2942,3.2941,3.2945,3.2927,3.2931,3.2935,3.2937,3.2939,3.2943,3.2942,3.2938,3.2922,3.292,3.2924,3.2928,3.2932,3.2929,3.286,3.2918,3.2918,3.2917,3.2917,3.2917,3.2986,3.2995,3.2989,3.2993,3.299,3.2989,3.2996,3.2987,3.2991,3.2992,3.2981,3.2988,3.2983,3.298,3.2977,3.2982,3.2971,3.2977,3.2979,3.298,3.2983,3.2932,3.2982,3.2982,3.2982,3.2981,3.2981,0,3.3042,3.3037,3.3041,3.3039,3.3042,3.3027,3.3024,3.3028,3.3034,3.303,3.3032,3.3037,3.304,3.3029,3.303,3.3036,3.3028,3.3036,3.3035,3.3034,3.2993,3.2989,3.3042,3.3042,3.3042,3.3042,3.3042,3.3042,3.3071,3.3085,3.3077,3.3088,3.3083,3.3089,3.3089,3.3087,3.3084,3.309,3.3092,3.3085,3.3078,3.3079,3.308,3.3077,3.3078,3.3088,3.3082,3.3043,3.3037,3.3032,3.3028,3.3089,3.3089,3.3123,3.3123,3.3124]}]]